Location: Newark
(7.0858°N, 171.3717°E)
Time: 21:46:30
(UTC+00:00)

N. Korean satellite - Pass Details

Date: 02 October 2021
Orbit: 450 x 495 km, 97.3° (Epoch: 15 October)

Event Time Altitude Azimuth Distance (km) Brightness Sun altitude
Rises 17:38:39 0° 6° (N) 2,557 10.3 -11.6°
Reaches altitude 10° 17:40:44 10° 3° (N) 1,681 9.3 -11.1°
Maximum altitude 17:44:18 63° 281° (WNW) 555 6.5 -10.2°
Drops below altitude 10° 17:47:55 10° 200° (SSW) 1,690 9.1 -9.3°
Sets 17:50:00 0° 197° (SSW) 2,572 10.1 -8.8°
